Weather History for Pratt, KS

Change the Weather History Date:

Thursday, July 18, 2013

  Actual Average (KP28) Record (KP28)
Temperature  
Mean Temperature 78 °F 82 °F  
Max Temperature 89 °F 95 °F 115 °F (1936)
Min Temperature 66 °F 70 °F 58 °F (2009)
Degree Days  
Heating Degree Days 0 0  
Month to date heating degree days 0  
Since 1 June heating degree days 3  
Since 1 July heating degree days 0  
Cooling Degree Days 12 17  
Month to date cooling degree days 298  
Year to date cooling degree days 807  
Since 1 June cooling degree days 651  
Growing Degree Days 28 (Base 50)    
Moisture  
Dew Point 63 °F    
Average Humidity 63    
Maximum Humidity 100    
Minimum Humidity 36    
Precipitation  
Precipitation 0.00 in 0.12 in 2.25 in (1950)
Month to date precipitation 2.10  
Year to date precipitation 15.95  
Snow  
Snow 0.00 in 0.00 in - ()
Month to date snowfall 0.0  
Since 1 June snowfall 0.0  
Since 1 July snowfall 0.0  
Snow Depth -    
Sea Level Pressure  
Sea Level Pressure 30.17 in    
Wind  
Wind Speed 11 mph (SSW)    
Max Wind Speed 24 mph    
Max Gust Speed 30 mph    
Visibility 10 miles    
Events      
T = Trace of Precipitation, MM = Missing Value Source: NWS Daily Summary

Daily Weather History Graph

Daily Weather History Graph

Search for Another Location

Airport:

Trip Planner

Search our weather history database for the weather conditions in past years. The results will help you decide how hot, cold, wet, or windy it might be!

Date:

Astronomy

Jul. 18, 2013 Rise Set
Actual Time 6:27 AM CDT 8:54 PM CDT
Civil Twilight 5:57 AM CDT 9:24 PM CDT
Nautical Twilight 5:20 AM CDT 10:01 PM CDT
Astronomical Twilight 4:38 AM CDT 10:42 PM CDT
Moon 4:53 PM CDT (7/18) 2:18 AM CDT (7/18)
Length of Visible Light 15h 27m
Length of Day
14h 26m
Waxing Gibbous, 77% of the Moon is Illuminated
Jul 18
Waxing Gibbous
Jul 22
Full
Jul 29
Last Quarter
Aug 6
New
Aug 14
First Quarter

Hourly Weather History & Observations

Time (CDT) Temp. Heat Index Dew Point Humidity Pressure Visibility Wind Dir Wind Speed Gust Speed Precip Events Conditions
12:15 AM 69.8 °F - 64.4 °F 83% 30.26 in 10.0 mi South 4.6 mph - N/A   Clear
12:35 AM 68.0 °F - 64.4 °F 88% 30.26 in 10.0 mi South 6.9 mph - N/A   Clear
12:55 AM 69.8 °F - 64.4 °F 83% 30.26 in 10.0 mi South 9.2 mph - N/A   Clear
1:15 AM 69.8 °F - 64.4 °F 83% 30.26 in 10.0 mi South 9.2 mph - N/A   Clear
1:35 AM 69.8 °F - 64.4 °F 83% 30.26 in 10.0 mi South 9.2 mph - N/A   Clear
1:55 AM 68.0 °F - 64.4 °F 88% 30.25 in 10.0 mi South 6.9 mph - N/A   Clear
2:15 AM 68.0 °F - 64.4 °F 88% 30.25 in 10.0 mi SSW 5.8 mph - N/A   Clear
2:35 AM 68.0 °F - 64.4 °F 88% 30.25 in 10.0 mi SSW 8.1 mph - N/A   Clear
2:55 AM 68.0 °F - 64.4 °F 88% 30.24 in 10.0 mi South 9.2 mph - N/A   Clear
3:15 AM 68.0 °F - 64.4 °F 88% 30.24 in 10.0 mi South 8.1 mph - N/A   Clear
3:35 AM 68.0 °F - 64.4 °F 88% 30.24 in 10.0 mi SSW 6.9 mph - N/A   Clear
3:55 AM 68.0 °F - 64.4 °F 88% 30.23 in 10.0 mi SSW 5.8 mph - N/A   Clear
4:15 AM 68.0 °F - 64.4 °F 88% 30.23 in 10.0 mi SSW 6.9 mph - N/A   Clear
4:35 AM 68.0 °F - 64.4 °F 88% 30.23 in 10.0 mi SSW 6.9 mph - N/A   Clear
4:55 AM 68.0 °F - 64.4 °F 88% 30.23 in 10.0 mi South 5.8 mph - N/A   Clear
5:15 AM 68.0 °F - 64.4 °F 88% 30.23 in 10.0 mi South 6.9 mph - N/A   Clear
5:35 AM 68.0 °F - 64.4 °F 88% 30.23 in 10.0 mi South 5.8 mph - N/A   Clear
5:55 AM 68.0 °F - 64.4 °F 88% 30.23 in 10.0 mi South 5.8 mph - N/A   Clear
6:15 AM 66.2 °F - 64.4 °F 94% 30.23 in 10.0 mi South 5.8 mph - N/A   Clear
6:35 AM 66.2 °F - 64.4 °F 94% 30.24 in 7.0 mi South 5.8 mph - N/A   Clear
6:55 AM 66.2 °F - 64.4 °F 94% 30.23 in 5.0 mi SSW 6.9 mph - N/A   Clear
7:15 AM 68.0 °F - 66.2 °F 94% 30.24 in 5.0 mi SSW 5.8 mph - N/A   Clear
7:35 AM 68.0 °F - 68.0 °F 100% 30.23 in 7.0 mi SSW 6.9 mph - N/A   Clear
7:55 AM 69.8 °F - 68.0 °F 94% 30.23 in 10.0 mi SSW 8.1 mph - N/A   Clear
8:15 AM 71.6 °F - 68.0 °F 88% 30.23 in 10.0 mi SSW 10.4 mph - N/A   Clear
8:35 AM 73.4 °F - 68.0 °F 83% 30.23 in 10.0 mi SSW 12.7 mph - N/A   Clear
8:55 AM 75.2 °F - 68.0 °F 78% 30.23 in 10.0 mi SSW 12.7 mph - N/A   Clear
9:15 AM 77.0 °F - 68.0 °F 74% 30.23 in 10.0 mi SSW 12.7 mph - N/A   Clear
9:35 AM 77.0 °F - 66.2 °F 69% 30.23 in 10.0 mi SSW 13.8 mph - N/A   Clear
9:55 AM 78.8 °F - 66.2 °F 65% 30.23 in 10.0 mi SSW 17.3 mph 21.9 mph N/A   Scattered Clouds
10:15 AM 78.8 °F - 66.2 °F 65% 30.22 in 10.0 mi SW 15.0 mph 23.0 mph N/A   Scattered Clouds
10:35 AM 80.6 °F 82.3 °F 64.4 °F 58% 30.22 in 10.0 mi SSW 19.6 mph 23.0 mph N/A   Scattered Clouds
10:55 AM 82.4 °F 83.9 °F 64.4 °F 54% 30.21 in 10.0 mi SSW 16.1 mph 19.6 mph N/A   Scattered Clouds
11:15 AM 82.4 °F 83.9 °F 64.4 °F 54% 30.21 in 10.0 mi SSW 17.3 mph 23.0 mph N/A   Scattered Clouds
11:35 AM 84.2 °F 85.0 °F 62.6 °F 48% 30.20 in 10.0 mi South 19.6 mph 25.3 mph N/A   Mostly Cloudy
11:55 AM 82.4 °F 83.4 °F 62.6 °F 51% 30.19 in 10.0 mi South 17.3 mph - N/A   Scattered Clouds
12:15 PM 86.0 °F 86.6 °F 62.6 °F 45% 30.19 in 10.0 mi SSW 20.7 mph 25.3 mph N/A   Scattered Clouds
12:35 PM 86.0 °F 86.1 °F 60.8 °F 43% 30.19 in 10.0 mi South 18.4 mph 24.2 mph N/A   Scattered Clouds
12:55 PM 86.0 °F 86.1 °F 60.8 °F 43% 30.18 in 10.0 mi South 21.9 mph 28.8 mph N/A   Clear
1:15 PM 86.0 °F 86.1 °F 60.8 °F 43% 30.17 in 10.0 mi South 18.4 mph 27.6 mph N/A   Clear
1:35 PM 87.8 °F 87.6 °F 60.8 °F 40% 30.16 in 10.0 mi South 20.7 mph 26.5 mph N/A   Clear
1:55 PM 87.8 °F 87.6 °F 60.8 °F 40% 30.15 in 10.0 mi South 16.1 mph 28.8 mph N/A   Scattered Clouds
2:15 PM 87.8 °F 87.6 °F 60.8 °F 40% 30.15 in 10.0 mi South 21.9 mph 28.8 mph N/A   Scattered Clouds
2:35 PM 87.8 °F 87.6 °F 60.8 °F 40% 30.14 in 10.0 mi SSW 20.7 mph 28.8 mph N/A   Scattered Clouds
2:55 PM 87.8 °F 87.6 °F 60.8 °F 40% 30.13 in 10.0 mi SSW 24.2 mph 28.8 mph N/A   Scattered Clouds
3:15 PM 87.8 °F 87.6 °F 60.8 °F 40% 30.13 in 10.0 mi South 21.9 mph 26.5 mph N/A   Scattered Clouds
3:35 PM 87.8 °F 87.6 °F 60.8 °F 40% 30.12 in 10.0 mi South 23.0 mph 26.5 mph N/A   Scattered Clouds
3:55 PM 87.8 °F 87.6 °F 60.8 °F 40% 30.11 in 10.0 mi South 19.6 mph 29.9 mph N/A   Scattered Clouds
4:15 PM 87.8 °F 87.6 °F 60.8 °F 40% 30.10 in 10.0 mi South 23.0 mph - N/A   Scattered Clouds
4:35 PM 87.8 °F 87.1 °F 59.0 °F 38% 30.10 in 10.0 mi SSW 18.4 mph 27.6 mph N/A   Scattered Clouds
5:35 PM 89.6 °F 88.9 °F 59.0 °F 36% 30.08 in 10.0 mi SSW 18.4 mph 24.2 mph N/A   Scattered Clouds
5:55 PM 89.6 °F 88.9 °F 59.0 °F 36% 30.07 in 10.0 mi SSW 19.6 mph 27.6 mph N/A   Mostly Cloudy
6:15 PM 86.0 °F 85.4 °F 59.0 °F 40% 30.06 in 10.0 mi SSW 20.7 mph - N/A   Scattered Clouds
6:35 PM 87.8 °F 87.1 °F 59.0 °F 38% 30.05 in 10.0 mi SSW 20.7 mph - N/A   Clear
6:55 PM 86.0 °F 84.9 °F 57.2 °F 37% 30.05 in 10.0 mi SSW 17.3 mph - N/A   Clear
7:15 PM 87.8 °F 87.1 °F 59.0 °F 38% 30.04 in 10.0 mi SSW 18.4 mph 24.2 mph N/A   Clear
7:35 PM 86.0 °F 85.4 °F 59.0 °F 40% 30.05 in 10.0 mi SSW 16.1 mph 20.7 mph N/A   Clear
7:55 PM 84.2 °F 83.8 °F 59.0 °F 42% 30.05 in 10.0 mi SSW 13.8 mph - N/A   Clear
8:15 PM 84.2 °F 83.8 °F 59.0 °F 42% 30.04 in 10.0 mi SSW 17.3 mph - N/A   Clear
8:35 PM 82.4 °F 82.5 °F 59.0 °F 45% 30.04 in 10.0 mi South 15.0 mph - N/A   Clear
8:55 PM 80.6 °F 81.5 °F 60.8 °F 51% 30.05 in 10.0 mi South 11.5 mph - N/A   Clear
9:15 PM 80.6 °F 81.5 °F 60.8 °F 51% 30.05 in 10.0 mi South 11.5 mph - N/A   Clear
9:35 PM 80.6 °F 81.5 °F 60.8 °F 51% 30.05 in 10.0 mi South 10.4 mph - N/A   Clear
9:55 PM 78.8 °F - 60.8 °F 54% 30.07 in 10.0 mi South 10.4 mph - N/A   Clear
10:15 PM 80.6 °F 81.5 °F 60.8 °F 51% 30.07 in 10.0 mi South 10.4 mph - N/A   Clear
10:35 PM 78.8 °F - 60.8 °F 54% 30.08 in 10.0 mi South 11.5 mph - N/A   Clear
10:55 PM 77.0 °F - 60.8 °F 57% 30.09 in 10.0 mi South 10.4 mph - N/A   Clear
11:15 PM 77.0 °F - 60.8 °F 57% 30.09 in 10.0 mi South 11.5 mph - N/A   Clear
11:35 PM 77.0 °F - 60.8 °F 57% 30.09 in 10.0 mi South 12.7 mph - N/A   Clear
11:55 PM 75.2 °F - 60.8 °F 61% 30.09 in 10.0 mi South 10.4 mph - N/A   Clear